INMARSAT 5-F2 (40384 NORAD) Tracking and Keplerian Element Data

This shows tracking and keplerian element data for the satellite.

Feedback or suggestion? Click here.




ElementValue
Catalog40384
NameINMARSAT 5-F2
Epoch Orbit3599
Epoch Day34.38689367
Epoch Year2025
RAAN83.166
Inclination0.0171
Eccentricity4.74E-05
Argument of Perigee219.3914
Mean Anonmoly275.5309
Mean Motion1.00271491
Decay Rate-2.81E-06
L11 40384U 15005A 25034.38689367 -.00000281 00000+0 00000+0 0 9994
L22 40384 0.0171 83.1660 0000474 219.3914 275.5309 1.00271491 35990



Live tracking and technical data element details for INMARSAT 5-F2 (NORAD 40384). INMARSAT 5-F2 can be tracked NOW for your location showing map with azimuth and elevation plus other details from your city location.







IsCatalogInMostPopularTable: catalog: 40384, numindb: 671
Update: records affected: 1



GetName: 40384 INMARSAT 5-F2

Hit Count: updated at: Wed, 30 Apr 2025 17:48:34 GMT